Time,TemperatureF,DewpointF,PressureIn,WindDirection,WindDirectionDegrees,WindSpeedMPH,WindSpeedGustMPH,Humidity,HourlyPrecipIn,Conditions,Clouds,dailyrainin,SoftwareType,DateUTC
2013-03-01 00:13:00,4.3,0.0,30.86,South,174,0.0,0.0,82,0.00,,,0.00,weatherlink.com 1.10,2013-03-01 07:13:00,
2013-03-01 00:28:00,3.1,-1.0,30.86,South,174,0.0,0.0,82,0.00,,,0.00,weatherlink.com 1.10,2013-03-01 07:28:00,
2013-03-01 00:43:00,2.3,-2.0,30.86,SSW,211,0.0,1.0,83,0.00,,,0.00,weatherlink.com 1.10,2013-03-01 07:43:00,
2013-03-01 00:58:00,1.9,-2.0,30.86,SW,231,0.0,1.0,84,0.00,,,0.00,weatherlink.com 1.10,2013-03-01 07:58:00,
2013-03-01 01:13:00,1.2,-3.0,30.86,ESE,106,0.0,1.0,83,0.00,,,0.00,weatherlink.com 1.10,2013-03-01 08:13:00,
2013-03-01 01:28:00,1.2,-3.0,30.87,SSE,167,1.0,1.0,84,0.00,,,0.00,weatherlink.com 1.10,2013-03-01 08:28:00,
2013-03-01 01:43:00,1.1,-3.0,30.87,WNW,284,1.0,2.0,84,0.00,,,0.00,weatherlink.com 1.10,2013-03-01 08:43:00,
2013-03-01 01:58:00,0.7,-3.0,30.87,West,259,0.0,1.0,83,0.00,,,0.00,weatherlink.com 1.10,2013-03-01 08:58:00,
2013-03-01 02:13:00,0.6,-3.0,30.87,West,279,0.0,2.0,83,0.00,,,0.00,weatherlink.com 1.10,2013-03-01 09:13:00,
2013-03-01 02:28:00,0.1,-4.0,30.86,West,269,0.0,1.0,83,0.00,,,0.00,weatherlink.com 1.10,2013-03-01 09:28:00,
2013-03-01 02:43:00,-0.4,-4.0,30.85,West,269,0.0,1.0,83,0.00,,,0.00,weatherlink.com 1.10,2013-03-01 09:43:00,
2013-03-01 02:58:00,-0.7,-5.0,30.84,West,263,1.0,1.0,83,0.00,,,0.00,weatherlink.com 1.10,2013-03-01 09:58:00,
2013-03-01 03:13:00,-1.0,-5.0,30.83,SW,214,0.0,1.0,83,0.00,,,0.00,weatherlink.com 1.10,2013-03-01 10:13:00,
2013-03-01 03:29:00,-1.2,-5.0,30.82,SW,214,0.0,1.0,83,0.00,,,0.00,weatherlink.com 1.10,2013-03-01 10:29:00,
2013-03-01 03:44:00,-1.9,-6.0,30.83,SW,214,0.0,1.0,82,0.00,,,0.00,weatherlink.com 1.10,2013-03-01 10:44:00,
2013-03-01 03:59:00,-2.6,-7.0,30.84,SW,219,0.0,1.0,81,0.00,,,0.00,weatherlink.com 1.10,2013-03-01 10:59:00,
2013-03-01 04:14:00,-3.0,-7.0,30.83,SW,219,0.0,1.0,82,0.00,,,0.00,weatherlink.com 1.10,2013-03-01 11:14:00,
2013-03-01 04:29:00,-2.7,-6.0,30.83,West,268,0.0,1.0,84,0.00,,,0.00,weatherlink.com 1.10,2013-03-01 11:29:00,
2013-03-01 04:44:00,-2.9,-7.0,30.84,SW,222,0.0,1.0,82,0.00,,,0.00,weatherlink.com 1.10,2013-03-01 11:44:00,
2013-03-01 04:59:00,-2.3,-6.0,30.84,South,174,0.0,0.0,84,0.00,,,0.00,weatherlink.com 1.10,2013-03-01 11:59:00,
2013-03-01 05:14:00,-1.7,-5.0,30.84,South,174,0.0,0.0,84,0.00,,,0.00,weatherlink.com 1.10,2013-03-01 12:14:00,
2013-03-01 05:29:00,-0.8,-4.0,30.84,South,174,0.0,0.0,85,0.00,,,0.00,weatherlink.com 1.10,2013-03-01 12:29:00,
2013-03-01 05:44:00,0.6,-3.0,30.85,SSW,197,0.0,1.0,85,0.00,,,0.00,weatherlink.com 1.10,2013-03-01 12:44:00,
2013-03-01 05:59:00,1.5,-2.0,30.85,SW,218,0.0,1.0,85,0.00,,,0.00,weatherlink.com 1.10,2013-03-01 12:59:00,
2013-03-01 06:15:00,2.2,-1.0,30.85,SW,219,0.0,1.0,85,0.00,,,0.00,weatherlink.com 1.10,2013-03-01 13:15:00,
2013-03-01 06:29:00,2.7,-1.0,30.85,SW,218,0.0,1.0,85,0.00,,,0.00,weatherlink.com 1.10,2013-03-01 13:29:00,
2013-03-01 06:44:00,3.0,-1.0,30.85,SW,218,1.0,1.0,85,0.00,,,0.00,weatherlink.com 1.10,2013-03-01 13:44:00,
2013-03-01 07:00:00,3.7,1.0,30.84,SW,218,0.0,1.0,86,0.00,,,0.00,weatherlink.com 1.10,2013-03-01 14:00:00,
2013-03-01 07:15:00,4.8,2.0,30.85,SW,218,0.0,1.0,86,0.00,,,0.00,weatherlink.com 1.10,2013-03-01 14:15:00,
2013-03-01 07:30:00,6.2,3.0,30.85,SW,218,0.0,1.0,86,0.00,,,0.00,weatherlink.com 1.10,2013-03-01 14:30:00,
2013-03-01 07:45:00,7.8,5.0,30.85,SW,219,0.0,1.0,89,0.00,,,0.00,weatherlink.com 1.10,2013-03-01 14:45:00,
2013-03-01 08:00:00,9.4,6.0,30.84,SW,218,0.0,1.0,86,0.00,,,0.00,weatherlink.com 1.10,2013-03-01 15:00:00,
2013-03-01 08:15:00,11.0,8.0,30.84,SW,217,0.0,0.0,86,0.00,,,0.00,weatherlink.com 1.10,2013-03-01 15:15:00,
2013-03-01 08:30:00,12.6,9.0,30.84,South,179,0.0,0.0,85,0.00,,,0.00,weatherlink.com 1.10,2013-03-01 15:30:00,
2013-03-01 08:45:00,14.7,11.0,30.84,SE,146,0.0,0.0,84,0.00,,,0.00,weatherlink.com 1.10,2013-03-01 15:45:00,
2013-03-01 09:00:00,16.8,12.0,30.84,SE,134,0.0,1.0,82,0.00,,,0.00,weatherlink.com 1.10,2013-03-01 16:00:00,
2013-03-01 09:15:00,18.8,13.0,30.82,East,100,0.0,3.0,79,0.00,,,0.00,weatherlink.com 1.10,2013-03-01 16:15:00,
2013-03-01 09:30:00,20.1,14.0,30.82,East,100,2.0,4.0,78,0.00,,,0.00,weatherlink.com 1.10,2013-03-01 16:30:00,
2013-03-01 09:45:00,21.9,16.0,30.81,East,101,2.0,5.0,78,0.00,,,0.00,weatherlink.com 1.10,2013-03-01 16:45:00,
2013-03-01 10:00:00,23.8,17.0,30.80,ESE,104,2.0,7.0,74,0.00,,,0.00,weatherlink.com 1.10,2013-03-01 17:00:00,
2013-03-01 10:16:00,25.0,18.0,30.78,ESE,114,3.0,7.0,74,0.00,,,0.00,weatherlink.com 1.10,2013-03-01 17:16:00,
2013-03-01 10:31:00,26.2,18.0,30.77,ESE,109,1.0,10.0,71,0.00,,,0.00,weatherlink.com 1.10,2013-03-01 17:31:00,
2013-03-01 10:46:00,27.0,18.0,30.76,SW,221,1.0,10.0,69,0.00,,,0.00,weatherlink.com 1.10,2013-03-01 17:46:00,
2013-03-01 11:01:00,28.2,19.0,30.76,ESE,103,6.0,7.0,68,0.00,,,0.00,weatherlink.com 1.10,2013-03-01 18:01:00,
2013-03-01 11:16:00,30.1,19.0,30.75,ESE,105,0.0,7.0,63,0.00,,,0.00,weatherlink.com 1.10,2013-03-01 18:16:00,
2013-03-01 11:31:00,31.3,19.0,30.75,West,273,2.0,8.0,60,0.00,,,0.00,weatherlink.com 1.10,2013-03-01 18:31:00,
2013-03-01 11:46:00,32.8,19.0,30.74,ENE,78,1.0,4.0,58,0.00,,,0.00,weatherlink.com 1.10,2013-03-01 18:46:00,
2013-03-01 12:01:00,31.6,18.0,30.74,East,96,4.0,6.0,58,0.00,,,0.00,weatherlink.com 1.10,2013-03-01 19:01:00,
2013-03-01 12:16:00,31.8,18.0,30.73,NW,311,1.0,5.0,57,0.00,,,0.00,weatherlink.com 1.10,2013-03-01 19:16:00,
2013-03-01 12:31:00,32.8,19.0,30.72,WSW,244,0.0,7.0,58,0.00,,,0.00,weatherlink.com 1.10,2013-03-01 19:31:00,
2013-03-01 12:46:00,33.1,20.0,30.71,ENE,65,1.0,5.0,58,0.00,,,0.00,weatherlink.com 1.10,2013-03-01 19:46:00,
2013-03-01 13:01:00,32.6,20.0,30.70,ESE,105,5.0,8.0,59,0.00,,,0.00,weatherlink.com 1.10,2013-03-01 20:01:00,
2013-03-01 13:16:00,33.5,20.0,30.70,East,82,2.0,8.0,59,0.00,,,0.00,weatherlink.com 1.10,2013-03-01 20:16:00,
2013-03-01 13:32:00,34.9,20.0,30.68,East,86,7.0,9.0,55,0.00,,,0.00,weatherlink.com 1.10,2013-03-01 20:32:00,
2013-03-01 13:47:00,35.0,20.0,30.68,SSE,148,2.0,12.0,55,0.00,,,0.00,weatherlink.com 1.10,2013-03-01 20:47:00,
2013-03-01 14:04:00,35.5,19.0,30.67,East,97,6.0,9.0,52,0.00,,,0.00,weatherlink.com 1.10,2013-03-01 21:04:00,
2013-03-01 14:17:00,36.5,19.0,30.68,West,281,3.0,9.0,50,0.00,,,0.00,weatherlink.com 1.10,2013-03-01 21:17:00,
2013-03-01 14:32:00,36.6,20.0,30.67,West,262,1.0,11.0,51,0.01,,,0.01,weatherlink.com 1.10,2013-03-01 21:32:00,
2013-03-01 14:47:00,36.8,20.0,30.65,SE,124,1.0,9.0,51,0.02,,,0.02,weatherlink.com 1.10,2013-03-01 21:47:00,
2013-03-01 15:02:00,36.6,21.0,30.65,SE,146,1.0,9.0,53,0.02,,,0.02,weatherlink.com 1.10,2013-03-01 22:02:00,
2013-03-01 15:17:00,35.9,21.0,30.66,NW,310,2.0,9.0,54,0.03,,,0.03,weatherlink.com 1.10,2013-03-01 22:17:00,
2013-03-01 15:32:00,35.5,21.0,30.66,ESE,110,7.0,9.0,56,0.03,,,0.04,weatherlink.com 1.10,2013-03-01 22:32:00,
2013-03-01 15:47:00,35.0,21.0,30.67,ESE,110,1.0,10.0,57,0.03,,,0.05,weatherlink.com 1.10,2013-03-01 22:47:00,
2013-03-01 16:02:00,34.1,21.0,30.67,ESE,113,2.0,8.0,58,0.03,,,0.05,weatherlink.com 1.10,2013-03-01 23:02:00,
2013-03-01 16:17:00,34.3,20.0,30.67,ESE,108,1.0,7.0,57,0.03,,,0.06,weatherlink.com 1.10,2013-03-01 23:17:00,
2013-03-01 16:32:00,33.7,20.0,30.68,ESE,123,1.0,12.0,58,0.03,,,0.07,weatherlink.com 1.10,2013-03-01 23:32:00,
2013-03-01 16:48:00,33.7,21.0,30.68,East,97,1.0,7.0,59,0.02,,,0.07,weatherlink.com 1.10,2013-03-01 23:48:00,
2013-03-01 17:03:00,32.9,19.0,30.68,NW,321,1.0,8.0,58,0.01,,,0.07,weatherlink.com 1.10,2013-03-02 00:03:00,
2013-03-01 17:18:00,29.9,19.0,30.69,SE,133,1.0,6.0,64,0.02,,,0.08,weatherlink.com 1.10,2013-03-02 00:18:00,
2013-03-01 17:33:00,28.4,19.0,30.68,SSE,155,0.0,5.0,68,0.01,,,0.08,weatherlink.com 1.10,2013-03-02 00:33:00,
2013-03-01 17:48:00,27.5,19.0,30.68,NW,323,0.0,3.0,70,0.01,,,0.08,weatherlink.com 1.10,2013-03-02 00:48:00,
2013-03-01 18:03:00,26.7,19.0,30.69,NE,56,0.0,3.0,72,0.01,,,0.08,weatherlink.com 1.10,2013-03-02 01:03:00,
2013-03-01 18:18:00,26.1,18.0,30.70,SE,124,0.0,4.0,72,0.00,,,0.08,weatherlink.com 1.10,2013-03-02 01:18:00,
2013-03-01 18:33:00,25.8,19.0,30.70,SSE,153,0.0,1.0,74,0.00,,,0.08,weatherlink.com 1.10,2013-03-02 01:33:00,
2013-03-01 18:48:00,25.7,18.0,30.70,SSE,153,0.0,0.0,74,0.00,,,0.08,weatherlink.com 1.10,2013-03-02 01:48:00,
2013-03-01 19:03:00,25.3,19.0,30.72,SW,231,0.0,2.0,77,0.00,,,0.08,weatherlink.com 1.10,2013-03-02 02:03:00,
2013-03-01 19:18:00,25.0,18.0,30.72,South,181,0.0,1.0,76,0.00,,,0.08,weatherlink.com 1.10,2013-03-02 02:18:00,
2013-03-01 19:33:00,23.8,18.0,30.72,South,180,0.0,0.0,77,0.00,,,0.08,weatherlink.com 1.10,2013-03-02 02:33:00,
2013-03-01 19:48:00,22.4,17.0,30.73,South,180,0.0,0.0,78,0.00,,,0.08,weatherlink.com 1.10,2013-03-02 02:48:00,
2013-03-01 20:03:00,21.1,16.0,30.73,South,181,0.0,0.0,80,0.00,,,0.08,weatherlink.com 1.10,2013-03-02 03:03:00,
2013-03-01 20:19:00,20.3,15.0,30.73,South,180,0.0,0.0,81,0.00,,,0.08,weatherlink.com 1.10,2013-03-02 03:19:00,
2013-03-01 20:34:00,19.4,15.0,30.73,South,180,0.0,0.0,82,0.00,,,0.08,weatherlink.com 1.10,2013-03-02 03:34:00,
2013-03-01 20:49:00,17.7,13.0,30.73,South,181,0.0,0.0,81,0.00,,,0.08,weatherlink.com 1.10,2013-03-02 03:49:00,
2013-03-01 21:19:00,15.9,12.0,30.75,South,181,0.0,0.0,84,0.00,,,0.08,weatherlink.com 1.10,2013-03-02 04:19:00,
2013-03-01 21:34:00,14.9,12.0,30.76,South,181,0.0,0.0,87,0.00,,,0.08,weatherlink.com 1.10,2013-03-02 04:34:00,
2013-03-01 21:49:00,14.7,11.0,30.76,South,181,0.0,0.0,86,0.00,,,0.08,weatherlink.com 1.10,2013-03-02 04:49:00,
2013-03-01 22:04:00,15.1,12.0,30.76,South,179,0.0,1.0,87,0.00,,,0.08,weatherlink.com 1.10,2013-03-02 05:04:00,
2013-03-01 22:19:00,15.5,12.0,30.76,South,178,0.0,0.0,86,0.00,,,0.08,weatherlink.com 1.10,2013-03-02 05:19:00,
2013-03-01 22:34:00,16.2,13.0,30.76,South,179,0.0,0.0,86,0.00,,,0.08,weatherlink.com 1.10,2013-03-02 05:34:00,
2013-03-01 22:49:00,16.7,13.0,30.77,South,179,0.0,0.0,86,0.00,,,0.08,weatherlink.com 1.10,2013-03-02 05:49:00,
2013-03-01 23:04:00,17.0,13.0,30.76,South,169,0.0,0.0,85,0.00,,,0.08,weatherlink.com 1.10,2013-03-02 06:04:00,
2013-03-01 23:19:00,17.2,14.0,30.76,South,169,0.0,0.0,85,0.00,,,0.08,weatherlink.com 1.10,2013-03-02 06:19:00,
2013-03-01 23:34:00,17.0,13.0,30.76,South,169,0.0,0.0,84,0.00,,,0.08,weatherlink.com 1.10,2013-03-02 06:34:00,
2013-03-01 23:49:00,16.6,13.0,30.76,South,169,0.0,0.0,84,0.00,,,0.08,weatherlink.com 1.10,2013-03-02 06:49:00,